Location: Blankensee
(53.5126°N, 14.3055°E)
Time: 18:57:45
(UTC+00:00)

CZ-4B R/B - Pass Details

Date: 08 August 2020
Orbit: 702 x 803 km, 98.9° (Epoch: 20 September)

Event Time Altitude Azimuth Distance (km) Brightness Sun altitude
Rises 01:52:57 0° 14° (NNE) 3,137 7.9 -12.0°
Reaches altitude 10° 01:55:15 10° 10° (N) 2,202 6.9 -11.8°
Maximum altitude 01:59:58 60° 292° (WNW) 812 3.5 -11.3°
Enters shadow 02:03:51 15° 215° (SW) 1,862 4.8 -11.0°
